This is the latest recevied weather packets stored in our database for station/object KL1SF-7. If no packets are shown the sender has not sent any weather packets the latest 10 day(s).
| Time | Temp. | Humidity | Pressure | Rain* | Wind** | Luminosity | Snow |
|---|---|---|---|---|---|---|---|
| 1777773209 | 15.56° C | 14% | 1018.6 hPa | 0 mm | - | - | - |
| 1777772619 | 15.56° C | 14% | 1018.6 hPa | 0 mm | - | - | - |
| 1777772011 | 16.11° C | 14% | 1018.5 hPa | 0 mm | - | - | - |
| 1777771413 | 16.11° C | 13% | 1018.7 hPa | 0 mm | - | - | - |
| 1777770802 | 16.67° C | 13% | 1018.7 hPa | 0 mm | - | - | - |
| 1777770214 | 16.67° C | 13% | 1018.6 hPa | 0 mm | - | - | - |
| 1777769615 | 17.22° C | 13% | 1018.5 hPa | 0 mm | - | - | - |
| 1777769009 | 17.22° C | 13% | 1018.5 hPa | 0 mm | - | - | - |
| 1777768422 | 17.22° C | 13% | 1018.5 hPa | 0 mm | - | - | - |
| 1777767822 | 17.22° C | 13% | 1018.5 hPa | 0 mm | - | - | - |
| 1777767212 | 17.22° C | 12% | 1018.5 hPa | 0 mm | - | - | - |
| 1777766625 | 17.78° C | 12% | 1018.2 hPa | 0 mm | - | - | - |
| 1777766006 | 17.78° C | 12% | 1018.6 hPa | 0 mm | - | - | - |
| 1777765419 | 18.33° C | 12% | 1018.6 hPa | 0 mm | - | - | - |
| 1777764812 | 18.33° C | 11% | 1018.7 hPa | 0 mm | - | - | - |
| 1777764212 | 18.89° C | 11% | 1018.8 hPa | 0 mm | - | - | - |
| 1777763622 | 18.89° C | 11% | 1018.8 hPa | 0 mm | - | - | - |
| 1777763015 | 18.33° C | 11% | 1018.8 hPa | 0 mm | - | - | - |
| 1777762416 | 18.89° C | 11% | 1018.9 hPa | 0 mm | - | - | - |
| 1777761809 | 18.89° C | 11% | 1018.9 hPa | 0 mm | - | - | - |
| 1777761222 | 18.33° C | 11% | 1019.1 hPa | 0 mm | - | - | - |
| 1777760602 | 18.33° C | 11% | 1019.1 hPa | 0 mm | - | - | - |
| 1777760013 | 17.78° C | 11% | 1019.1 hPa | 0 mm | - | - | - |
| 1777759428 | 18.33° C | 11% | 1019.6 hPa | 0 mm | - | - | - |
| 1777758809 | 17.78° C | 11% | 1020.1 hPa | 0 mm | - | - | - |
* Rain since midnight (hover to see other rain measurements)
** Current wind speed in m/s (hover to see current wind gust speed)